WO0TEN Weather Reports


Display with metric or nautical units.
time (UTC)temp
F
wind
direction
speed
MPH
gust
MPH
rain 1hr
in
rain 24hr
in
rain mn
in
humidity
%
barometer
mb
20210228120543 74 135 4.0 0.0 0.00 0.00 0.00 92
20210228115936 74 137 5.0 0.0 0.00 0.00 0.00 92
20210228115525 74 150 6.0 0.0 0.00 0.00 0.00 92
20210228114943 74 158 5.0 0.0 0.00 0.00 0.00 92
20210228114116 74 136 4.0 0.0 0.00 0.00 0.00 92
20210228113524 74 135 5.0 0.0 0.00 0.00 0.00 92
20210228113011 74 149 6.0 0.0 0.00 0.00 0.00 92
20210228112248 74 165 5.0 0.0 0.00 0.00 0.00 92
20210228111640 74 147 6.0 0.0 0.00 0.00 0.00 92
20210228111037 74 135 8.0 0.0 0.00 0.00 0.00 92
20210228110422 74 136 9.0 0.0 0.00 0.00 0.00 92
20210228105815 74 136 8.0 0.0 0.00 0.00 0.00 92
20210228105206 74 135 8.0 0.0 0.00 0.00 0.00 92
20210228104603 74 163 8.0 0.0 0.00 0.00 0.00 92
20210228103949 74 187 8.0 0.0 0.00 0.00 0.00 92
20210228103344 74 155 8.0 0.0 0.00 0.00 0.00 92
20210228103025 74 135 9.0 0.0 0.00 0.00 0.00 92
20210228102125 74 135 9.0 0.0 0.00 0.00 0.00 92
20210228101526 74 156 6.0 0.0 0.00 0.00 0.00 92
20210228100915 74 186 6.0 0.0 0.00 0.00 0.00 92
20210228100309 74 185 7.0 0.0 0.00 0.00 0.00 92
20210228095700 74 156 9.0 0.0 0.00 0.00 0.00 92
20210228095102 74 151 10.0 0.0 0.00 0.00 0.00 92
20210228094442 74 163 11.0 0.0 0.00 0.00 0.00 92
20210228093828 74 142 10.0 0.0 0.00 0.00 0.00 92
20210228093221 74 151 8.0 0.0 0.00 0.00 0.00 92
20210228092710 74 165 8.0 0.0 0.00 0.00 0.00 92
20210228092011 74 161 10.0 0.0 0.00 0.00 0.00 92
20210228091353 74 158 11.0 0.0 0.00 0.00 0.00 92
20210228090747 74 162 11.0 0.0 0.00 0.00 0.00 92
20210228090142 74 157 10.0 0.0 0.00 0.00 0.00 92
20210228085535 74 150 9.0 0.0 0.00 0.00 0.00 92
20210228085103 74 145 6.0 0.0 0.00 0.00 0.00 92
20210228084313 74 152 8.0 0.0 0.00 0.00 0.00 92
20210228083700 74 161 9.0 0.0 0.00 0.00 0.00 92
20210228083052 74 154 9.0 0.0 0.00 0.00 0.00 92
20210228082448 74 144 9.0 0.0 0.00 0.00 0.00 92
20210228081838 74 150 10.0 0.0 0.00 0.00 0.00 92
20210228081229 74 144 11.0 0.0 0.00 0.00 0.00 92
20210228080623 74 143 10.0 0.0 0.00 0.00 0.00 92
20210228080028 74 144 8.0 0.0 0.00 0.00 0.00 92
20210228075409 74 139 8.0 0.0 0.00 0.00 0.00 92
20210228074755 74 139 10.0 0.0 0.00 0.00 0.00 92
20210228074149 74 138 11.0 0.0 0.00 0.00 0.00 92
20210228073539 74 143 10.0 0.0 0.00 0.00 0.00 92
20210228072945 74 159 11.0 0.0 0.00 0.00 0.00 92
20210228072359 74 188 10.0 0.0 0.00 0.00 0.00 92
20210228071717 74 168 9.0 0.0 0.00 0.00 0.00 92
20210228071106 74 150 10.0 0.0 0.00 0.00 0.00 92
20210228070458 74 166 10.0 0.0 0.00 0.00 0.00 92
20210228065759 74 160 10.0 0.0 0.00 0.00 0.00 92
20210228065152 74 170 10.0 0.0 0.00 0.00 0.00 92
20210228064543 74 173 11.0 0.0 0.00 0.00 0.00 92
20210228063943 74 156 11.0 0.0 0.00 0.00 0.00 92
20210228063359 74 188 10.0 0.0 0.00 0.00 0.00 92
20210228063044 74 169 9.0 0.0 0.00 0.00 0.00 92
20210228062111 74 153 9.0 0.0 0.00 0.00 0.00 92
20210228061511 74 156 8.0 0.0 0.00 0.00 0.00 92
20210228060855 74 151 9.0 0.0 0.00 0.00 0.00 92
20210228060247 74 164 9.0 0.0 0.00 0.00 0.00 92
20210228055641 74 168 9.0 0.0 0.00 0.00 0.00 92
20210228055058 74 154 10.0 0.0 0.00 0.00 0.00 92
20210228054420 74 138 11.0 0.0 0.00 0.00 0.00 92
20210228053833 74 141 10.0 0.0 0.00 0.00 0.00 92
20210228053223 74 151 9.0 0.0 0.00 0.00 0.00 92
20210228052958 74 158 10.0 0.0 0.00 0.00 0.00 92
20210228051948 74 162 9.0 0.0 0.00 0.00 0.00 92
20210228051340 74 155 10.0 0.0 0.00 0.00 0.00 92
20210228050736 74 156 9.0 0.0 0.00 0.00 0.00 92
20210228050123 74 156 9.0 0.0 0.00 0.00 0.00 92
20210228045546 74 148 7.0 0.0 0.00 0.00 0.00 92
20210228044907 74 140 8.0 0.0 0.00 0.00 0.00 92
20210228044303 74 142 8.0 0.0 0.00 0.00 0.00 92
20210228043654 74 139 6.0 0.0 0.00 0.00 0.00 92
20210228043042 74 138 7.0 0.0 0.00 0.00 0.00 92
20210228042538 74 146 9.0 0.0 0.00 0.00 0.00 92
20210228041828 74 137 9.0 0.0 0.00 0.00 0.00 92
20210228041218 74 135 9.0 0.0 0.00 0.00 0.00 92
20210228040611 74 148 8.0 0.0 0.00 0.00 0.00 92
20210228040001 74 150 9.0 0.0 0.00 0.00 0.00 92
20210228035353 74 148 9.0 0.0 0.00 0.00 0.00 92
20210228034746 74 148 8.0 0.0 0.00 0.00 0.00 92
20210228034141 74 152 8.0 0.0 0.00 0.00 0.00 92
20210228033527 74 148 8.0 0.0 0.00 0.00 0.00 92
20210228032919 74 139 8.0 0.0 0.00 0.00 0.00 92
20210228032311 74 136 8.0 0.0 0.00 0.00 0.00 92
20210228031701 74 137 10.0 0.0 0.00 0.00 0.00 92
20210228031052 74 146 10.0 0.0 0.00 0.00 0.00 92
20210228030442 74 152 9.0 0.0 0.00 0.00 0.00 92
20210228025834 74 142 9.0 0.0 0.00 0.00 0.00 92
20210228025311 74 152 8.0 0.0 0.00 0.00 0.00 92
20210228024618 74 154 8.0 0.0 0.00 0.00 0.00 92
20210228024027 74 147 9.0 0.0 0.00 0.00 0.00 92
20210228023404 74 140 8.0 0.0 0.00 0.00 0.00 92
20210228022915 74 140 8.0 0.0 0.00 0.00 0.00 92
20210228022143 74 144 7.0 0.0 0.00 0.00 0.00 92
20210228021543 74 141 6.0 0.0 0.00 0.00 0.00 92
20210228020928 74 147 6.0 0.0 0.00 0.00 0.00 92
20210228020322 74 143 8.0 0.0 0.00 0.00 0.00 92
20210228015710 74 144 7.0 0.0 0.00 0.00 0.00 92
20210228015102 74 143 7.0 0.0 0.00 0.00 0.00 92
20210228014453 74 135 7.0 0.0 0.00 0.00 0.00 92
20210228013854 74 137 8.0 0.0 0.00 0.00 0.00 92
20210228013237 74 144 7.0 0.0 0.00 0.00 0.00 92
20210228012726 74 158 6.0 0.0 0.00 0.00 0.00 92
20210228012046 74 159 7.0 0.0 0.00 0.00 0.00 92
20210228011414 74 141 8.0 0.0 0.00 0.00 0.00 92
20210228010808 74 149 7.0 0.0 0.00 0.00 0.00 92
20210228010212 74 147 8.0 0.0 0.00 0.00 0.00 92
20210228005600 74 144 9.0 0.0 0.00 0.00 0.00 92
20210228005123 74 146 8.0 0.0 0.00 0.00 0.00 92
20210228004337 74 142 8.0 0.0 0.00 0.00 0.00 92
20210228003724 74 142 8.0 0.0 0.00 0.00 0.00 92
20210228003116 74 153 6.0 0.0 0.00 0.00 0.00 92
20210228002624 74 147 6.0 0.0 0.00 0.00 0.00 92
20210228001858 74 136 7.0 0.0 0.00 0.00 0.00 92
20210228001251 74 136 10.0 0.0 0.00 0.00 0.00 92
20210228000642 74 144 9.0 0.0 0.00 0.00 0.00 92
20210228000047 74 143 7.0 0.0 0.00 0.00 0.00 92
20210227235519 74 145 9.0 0.0 0.00 0.00 0.00 92
20210227234909 74 152 10.0 0.0 0.00 0.00 0.00 92
20210227234218 74 161 10.0 0.0 0.00 0.00 0.00 92
20210227233602 74 164 11.0 0.0 0.00 0.00 0.00 92
20210227233050 74 151 10.0 0.0 0.00 0.00 0.00 92
20210227232403 74 146 10.0 0.0 0.00 0.00 0.00 92
20210227231735 74 149 11.0 0.0 0.00 0.00 0.00 92
20210227231128 74 150 11.0 0.0 0.00 0.00 0.00 92
20210227230525 74 147 11.0 0.0 0.00 0.00 0.00 92
20210227225912 74 146 11.0 0.0 0.00 0.00 0.00 92
20210227225329 74 146 11.0 0.0 0.00 0.00 0.00 92
20210227224655 74 149 12.0 0.0 0.00 0.00 0.00 92
20210227224048 74 149 11.0 0.0 0.00 0.00 0.00 92
20210227223446 74 138 9.0 0.0 0.00 0.00 0.00 92
20210227222851 74 138 9.0 0.0 0.00 0.00 0.00 92
20210227222223 74 143 9.0 0.0 0.00 0.00 0.00 92
20210227221614 74 145 10.0 0.0 0.00 0.00 0.00 92
20210227221019 74 140 11.0 0.0 0.00 0.00 0.00 92
20210227220353 74 146 9.0 0.0 0.00 0.00 0.00 92
20210227215752 74 148 8.0 0.0 0.00 0.00 0.00 92
20210227215138 74 143 8.0 0.0 0.00 0.00 0.00 92
20210227214548 74 144 9.0 0.0 0.00 0.00 0.00 92
20210227213923 74 140 11.0 0.0 0.00 0.00 0.00 92
20210227213316 74 144 10.0 0.0 0.00 0.00 0.00 92
20210227212810 74 151 11.0 0.0 0.00 0.00 0.00 92
20210227212056 74 141 14.0 0.0 0.00 0.00 0.00 92
20210227211448 73 139 14.0 0.0 0.00 0.00 0.00 93
20210227210841 73 137 14.0 0.0 0.00 0.00 0.00 94
20210227210232 72 150 14.0 0.0 0.00 0.00 0.00 95
20210227205713 72 159 11.0 0.0 0.00 0.00 0.00 96
20210227205141 72 159 9.0 0.0 0.00 0.00 0.00 97
20210227204412 71 147 8.0 0.0 0.00 0.00 0.00 98
20210227203803 71 137 8.0 0.0 0.00 0.00 0.00 99